This demonstration page uses our WeatherBlox Daily Observations layout. Learn more.

Left ArrowRight Arrow

41.86663, -103.66717

Hourly Observations for January 5, 2016

Temp ( °F °C ) Dew Point ( °F °C ) Humidity (%) Winds ( mph kmh ) Pressure ( in mb ) Visibility ( mi km ) Precip ( " mm )
12:53 am 00:53 Clear 10 -12.2 7 -13.9 87 87 WNW 5 7 30.05 1018 9 14 N/A
1:53 am 01:53 Clear with Mist and Fog 11 -11.7 8 -13.3 88 88 NNW 7 11 30.04 1017 5 8 N/A
2:53 am 02:53 Clear with Mist and Fog 10 -12.2 7 -13.9 87 87 NNW 7 11 30.05 1018 5 8 N/A
3:53 am 03:53 Clear with Mist and Fog 10 -12.2 7 -13.9 87 87 NW 8 13 30.04 1017 5 8 N/A
4:53 am 04:53 Clear with Mist and Fog 10 -12.2 7 -13.9 87 87 NNW 7 11 30.04 1017 5 8 N/A
5:53 am 05:53 Clear with Mist and Fog 8 -13.3 5 -15 87 87 NW 5 7 30.04 1017 5 8 N/A
6:53 am 06:53 Clear with Mist and Fog 9 -12.8 6 -14.4 88 88 NW 9 15 30.06 1018 4 6 N/A
7:53 am 07:53 Sunny with Mist and Fog 10 -12.2 6 -14.4 84 84 NNW 7 11 30.06 1018 3 5 N/A
8:53 am 08:53 Sunny with Mist and Fog 12 -11.1 8 -13.3 84 84 NNW 6 9 30.05 1018 4 6 N/A
9:53 am 09:53 Sunny with Mist and Fog 17 -8.3 13 -10.6 84 84 W 5 7 30.04 1017 5 8 N/A
10:53 am 10:53 Hazy 22 -5.6 16 -8.9 78 78 NW 8 13 30.02 1017 5 8 N/A
11:53 am 11:53 Hazy 29 -1.7 19 -7.2 66 66 N N/A 29.97 1015 5 8 N/A
12:53 pm 12:53 Hazy 30 -1.1 20 -6.7 66 66 WNW 6 9 29.95 1014 5 8 N/A
1:53 pm 13:53 Hazy 32 undefined 22 -5.6 66 66 N N/A 29.92 1013 6 10 N/A
2:53 pm 14:53 Hazy 32 undefined 22 -5.6 66 66 E 5 7 29.92 1013 5 8 N/A
3:53 pm 15:53 Hazy 31 -0.6 21 -6.1 67 67 N N/A 29.93 1014 5 8 N/A
4:53 pm 16:53 Hazy 25 -3.9 18 -7.8 75 75 SE 5 7 29.96 1015 5 8 N/A
5:53 pm 17:53 Hazy 19 -7.2 14 -10 81 81 E 8 13 29.99 1016 4 6 N/A
6:53 pm 18:53 Hazy 17 -8.3 12 -11.1 80 80 E 5 7 30.00 1016 5 8 N/A
7:53 pm 19:53 Clear with Mist and Fog 18 -7.8 14 -10 84 84 N N/A 30.00 1016 4 6 N/A
8:53 pm 20:53 Clear with Mist and Fog 13 -10.6 11 -11.7 92 92 N 3 6 30.00 1016 4 6 N/A
9:20 pm 21:20 Partly Cloudy with Mist and Fog 12 -11 10 -12 92 92 N 5 7 30.12 1020 3 4 N/A
9:27 pm 21:27 Mostly Clear with Mist and Fog 13 -10.6 11 -11.7 92 92 N 6 9 30.12 1020 3 5 N/A
9:53 pm 21:53 Clear with Mist and Fog 17 -8.3 13 -10.6 84 84 NW 3 6 29.98 1015 4 6 N/A
10:13 pm 22:13 Clear with Mist and Fog 14 -10 11 -11.7 88 88 NW 3 6 30.09 1019 3 4 N/A
10:21 pm 22:21 Clear with Mist and Fog 15 -9.4 11 -11.7 84 84 N N/A 30.09 1019 3 5 N/A
10:53 pm 22:53 Hazy 16 -8.9 11 -11.7 80 80 N N/A 29.96 1015 3 5 N/A
11:15 pm 23:15 Clear with Mist and Fog 13 -10.6 9 -12.8 84 84 WNW 8 13 30.12 1020 3 4 N/A
11:32 pm 23:32 Clear with Mist and Fog 14 -10 10 -12 85 85 NW 9 15 30.09 1019 3 5 N/A
11:53 pm 23:53 Clear with Mist and Fog 13 -10.6 10 -12.2 88 88 NNW 9 15 29.94 1014 3 5 N/A

Powered by AerisWeather